SCP
0 0 0 1 1 1 0 1 1 1 1 1 1 1 1 1 1 1 0 0 0 0 0 0 0 0 0 0 0 0 0 0 0 0 0 0 0 0 0 0 0 0 0
0 0 0 0 1 1 1 1 1 1 1 1 1 1 1 1 1 1 1 0 0 0 0 0 0 0 0 0 0 0 0 0 0 0 0 0 0 0 0 0 0 0 0
0 0 0 0 1 1 1 1 1 1 1 1 1 1 1 1 1 1 1 1 1 0 0 0 0 0 0 0 0 0 0 0 0 0 0 0 0 0 0 0 0 0 0
0 0 0 0 0 1 1 1 1 1 1 1 1 1 1 1 1 1 1 1 1 1 1 0 0 0 0 0 0 0 0 0 0 0 0 0 0 0 0 0 0 0 0
0 0 0 0 0 0 1 1 1 1 1 1 1 1 1 1 1 1 1 1 1 1 1 1 1 0 0 0 0 0 0 0 0 0 0 0 0 0 0 0 0 0 0
0 0 0 0 0 0 0 1 1 1 1 2 2 1 1 1 1 1 1 1 2 2 1 1 1 1 1 0 0 0 0 0 0 0 0 0 0 0 0 0 0 0 0
0 0 0 0 0 0 0 0 1 1 1 1 1 1 1 1 1 1 2 2 2 2 2 1 1 1 1 1 0 0 0 0 0 0 0 0 0 0 0 0 0 0 0
0 0 0 0 0 0 0 0 0 1 1 1 1 1 1 1 1 1 2 2 2 2 2 2 1 1 1 1 1 0 0 0 0 0 0 0 0 0 0 0 0 0 0
0 0 0 0 0 0 0 0 0 0 1 1 1 1 1 1 1 1 1 2 2 2 2 2 2 2 1 1 1 1 0 0 0 0 0 0 0 0 0 0 0 0 0
0 0 0 0 0 0 0 0 0 0 1 1 1 1 1 1 1 1 1 2 3 3 3 2 2 2 2 1 1 1 1 0 0 0 0 0 0 0 0 0 0 0 0
0 0 0 0 0 0 0 0 0 0 1 1 1 1 1 1 1 1 1 2 3 3 3 3 3 2 2 2 1 1 1 1 1 0 0 0 0 0 0 0 0 0 0
0 0 0 0 0 0 0 0 0 0 1 1 1 1 1 1 1 1 1 2 2 3 4 4 3 3 2 2 2 1 1 1 1 1 1 1 0 0 0 0 0 0 0
0 0 0 0 0 0 0 0 0 0 0 1 1 1 1 1 1 1 1 1 1 2 3 3 3 2 2 2 2 2 1 1 1 1 1 1 1 0 0 0 0 0 0
0 0 0 0 0 0 0 0 0 0 0 0 0 1 1 1 1 0 0 0 0 1 1 1 1 1 1 2 2 2 1 1 1 1 1 1 1 1 1 1 1 0 0
0 0 0 0 0 0 0 0 0 0 0 0 0 0 1 1 1 0 0 0 0 0 0 0 0 1 1 1 1 1 1 1 1 1 1 1 1 1 1 1 1 1 1
0 0 0 0 0 0 0 0 0 0 0 0 0 0 0 0 1 0 0 0 0 0 0 0 0 0 0 0 0 0 1 1 1 1 1 1 1 1 0 0 0 0 0
0 0 0 0 0 0 0 0 0 0 0 0 0 0 0 0 0 0 0 0 0 0 0 0 0 0 0 0 0 0 0 0 0 0 0 0 0 0 0 0 0 0 0
0 0 0 0 0 0 0 0 0 0 0 0 0 0 0 0 0 0 0 0 0 0 0 0 0 0 0 0 0 0 0 0 0 0 0 0 0 0 0 0 0 0 0
0 0 0 0 0 0 0 0 0 0 0 0 0 0 0 0 0 0 0 0 0 0 0 0 0 0 0 0 0 0 0 0 0 0 0 0 0 0 0 0 0 0 0
0 0 0 0 0 0 0 0 0 0 0 0 0 0 0 0 0 0 0 0 0 0 0 0 0 0 0 0 0 0 0 0 0 0 0 0 0 0 0 0 0 0 0
0 0 0 0 0 0 0 0 0 0 0 0 0 0 0 0 0 0 0 0 0 0 0 0 0 0 0 0 0 0 0 0 0 0 0 0 0 0 0 0 0 0 0
0 0 0 0 0 0 0 0 0 0 0 0 0 0 0 0 0 0 0 0 0 0 0 0 0 0 0 0 0 0 0 0 0 0 0 0 0 0 0 0 0 0 0
0 0 0 0 0 0 0 0 0 0 0 0 0 0 0 0 0 0 0 0 0 0 0 0 0 0 0 0 0 0 0 0 0 0 0 0 0 0 0 0 0 0 0
0 0 0 0 0 0 0 0 0 0 0 0 0 0 0 0 0 0 0 0 0 0 0 0 0 0 0 0 0 0 0 0 0 0 0 0 0 0 0 0 0 0 0
0 0 0 0 0 0 0 0 0 0 0 0 0 0 0 0 0 0 0 0 0 0 0 0 0 0 0 0 0 0 0 0 0 0 0 0 0 0 0 0 0 0 0
0 0 0 0 0 0 0 0 0 0 0 0 0 0 0 0 0 0 0 0 0 0 0 0 0 0 0 0 0 0 0 0 0 0 0 0 0 0 0 0 0 0 0
Wind_Speed
8 5 4 4 4 5 6 7 8 8 7 6 7 7 8 7 6 7 7 8 8 9 8 6 6 6 6 7 7 5 5 5 3 2 4 4 5 6 6 5 4 5 5
6 5 3 3 5 6 7 7 8 8 8 8 6 5 5 5 5 5 6 8 9 9 8 8 7 7 6 7 7 6 4 3 3 3 2 4 4 3 4 3 4 5 3
8 6 4 4 4 6 7 7 8 8 9 8 4 3 3 3 4 5 6 7 7 7 8 8 7 6 7 6 7 7 7 5 4 5 4 3 4 3 3 2 3 3 3
6 5 4 4 4 6 5 6 6 6 7 7 7 8 8 8 8 6 5 5 6 7 7 7 7 7 6 7 7 7 6 6 5 4 5 5 3 3 4 3 2 2 3
4 4 4 4 4 4 3 4 4 5 5 6 8 9 8 8 5 4 4 5 5 6 7 7 7 7 6 7 7 6 7 6 6 5 3 5 5 5 5 6 4 2 2
2 2 3 2 2 3 2 2 3 4 3 5 6 8 9 8 6 5 5 5 4 4 5 6 6 6 6 6 6 6 7 7 7 6 5 4 4 4 5 7 6 5 4
1 2 3 3 3 3 3 2 2 3 3 3 5 6 8 8 8 7 6 5 4 4 5 5 5 5 6 6 5 6 6 7 7 7 6 5 5 4 4 6 6 5 3
3 3 3 2 2 3 3 2 2 2 2 2 3 4 5 5 5 6 5 5 4 5 4 5 5 5 5 5 5 5 5 5 6 6 6 5 5 4 5 4 4 6 5
4 4 4 3 3 3 3 3 2 3 3 2 1 1 2 3 4 4 4 4 3 3 4 4 4 4 4 4 4 4 4 4 4 4 5 5 4 4 4 4 4 6 7
4 4 4 4 4 4 4 4 3 3 2 2 2 1 1 1 2 2 2 3 4 3 3 4 4 4 4 4 4 3 3 4 4 3 4 4 3 3 2 3 3 4 6
3 3 3 3 3 4 4 5 4 4 4 4 3 2 2 2 1 1 1 2 2 2 3 4 4 4 3 3 4 4 3 4 4 3 3 4 3 3 3 2 3 3 4
2 3 3 3 4 4 4 4 4 4 4 4 3 3 2 2 2 2 1 1 1 1 2 2 3 3 3 3 4 4 4 4 4 4 4 4 3 3 3 3 3 3 3
3 3 3 3 4 4 4 4 4 4 4 4 3 3 3 3 2 2 2 1 1 1 0 1 2 2 2 3 3 4 4 4 4 4 4 4 3 4 3 3 3 3 3
3 3 3 3 4 4 4 4 4 4 4 4 3 3 3 3 3 3 2 2 1 1 1 1 1 1 2 2 2 2 3 3 3 3 3 3 3 4 4 3 3 2 3
4 4 4 4 4 4 4 4 4 4 4 4 3 3 3 3 3 3 3 2 1 1 1 1 1 1 1 1 1 2 3 2 2 1 1 2 2 2 3 2 2 2 2
5 5 4 4 4 4 4 5 4 4 4 3 3 4 4 3 3 3 3 2 2 1 1 1 1 1 1 1 0 1 1 1 1 1 1 0 1 0 1 1 1 1 2
5 5 4 4 4 4 3 4 4 4 3 3 3 3 3 3 3 3 3 2 2 2 1 1 0 1 1 1 0 1 1 1 1 1 1 0 0 0 0 0 0 0 1
5 5 4 5 4 3 3 3 3 3 3 3 3 3 3 4 3 3 3 3 2 2 2 1 1 0 1 1 1 1 1 1 0 0 1 1 0 1 0 0 1 1 1
4 4 4 4 3 3 3 3 3 3 3 3 4 4 4 4 4 3 3 2 2 2 2 1 1 1 1 1 2 2 1 1 1 1 1 1 0 1 1 0 1 1 2
3 3 3 3 3 3 2 2 3 3 4 4 4 4 4 4 4 4 3 2 2 2 1 1 1 1 1 1 2 2 1 1 1 1 1 1 1 2 1 0 0 1 1
4 3 3 2 3 2 2 3 3 4 4 4 4 4 4 4 4 3 2 2 1 1 1 1 1 1 1 0 1 2 1 1 0 0 1 1 2 2 2 1 1 1 1
4 4 3 4 3 1 2 3 4 4 3 3 4 4 4 3 2 2 2 1 1 1 1 1 1 1 1 1 1 1 1 1 0 0 1 1 2 2 2 2 2 2 2
5 3 3 4 3 2 2 4 4 3 3 3 4 4 3 3 2 1 1 1 1 1 1 1 1 1 1 1 1 1 1 1 0 0 0 1 1 2 2 3 4 2 1
5 4 3 4 4 3 3 4 3 2 2 3 4 3 2 2 2 1 1 1 1 1 2 2 2 1 1 1 0 0 0 1 1 1 1 1 2 3 3 3 3 2 1
5 3 4 5 5 4 4 3 3 2 2 3 3 3 2 2 2 2 2 2 2 2 3 2 2 2 2 2 2 1 1 1 1 1 1 1 1 2 2 2 1 1 1
5 5 5 5 5 4 5 4 3 2 3 3 3 2 2 2 2 2 2 3 3 3 3 3 2 2 3 2 2 1 0 1 2 2 1 0 0 0 1 1 1 1 1
Wind_Direction
253 255 240 227 219 216 213 213 206 206 193 194 200 204 213 213 212 213 210 206 206 205 206 212 209 206 212 218 216 217 227 235 215 250 279 271 254 251 252 249 251 255 250
269 264 255 243 225 223 219 219 217 209 203 205 203 204 202 207 211 209 209 209 207 205 206 211 212 208 214 219 217 213 221 223 192 201 261 297 309 285 256 249 246 253 250
246 256 253 245 239 233 228 224 223 218 211 206 190 184 189 198 204 210 213 213 210 208 208 210 211 209 210 219 219 215 219 228 215 200 206 238 260 304 295 255 249 254 249
247 252 253 255 248 245 239 234 230 226 217 201 197 198 205 215 217 213 212 208 206 210 212 213 213 213 213 219 219 214 217 221 230 219 218 225 216 251 295 289 266 256 253
246 256 258 255 260 257 247 240 238 233 221 206 205 207 215 221 218 198 201 207 209 212 214 214 213 215 218 222 220 215 216 219 226 221 215 229 233 230 249 276 285 290 263
264 283 311 330 322 316 299 257 237 238 222 210 208 208 214 217 208 203 207 211 212 215 218 216 215 217 220 223 223 220 219 223 224 224 218 214 223 225 232 254 265 271 265
340 347 350 354 348 339 329 307 265 256 241 217 217 218 220 218 216 212 210 210 214 217 220 215 220 223 227 226 222 220 222 223 223 227 228 227 233 229 232 248 261 266 265
358 355 345 351 344 347 355 358 346 307 298 250 235 233 228 222 224 220 213 211 216 219 215 211 217 223 226 226 222 221 224 222 224 229 229 231 234 231 230 236 252 269 266
348 350 353 359 4 7 6 10 14 7 4 351 304 263 254 237 228 220 213 213 215 214 208 206 213 220 221 222 218 221 222 220 225 230 230 234 239 237 238 236 234 249 266
349 355 359 4 6 6 9 18 24 16 4 7 351 354 345 306 254 227 224 224 223 214 207 210 212 213 217 218 217 221 223 215 222 224 223 231 241 241 240 238 239 236 251
337 342 346 353 3 10 15 16 13 9 6 2 357 4 356 342 340 316 249 244 246 226 217 217 209 208 213 215 212 218 213 213 218 216 217 229 231 239 242 236 236 241 243
335 338 339 354 4 6 8 9 8 7 359 357 360 2 4 9 359 335 320 329 306 279 237 220 212 208 209 208 207 217 214 216 220 220 218 229 223 234 242 235 240 242 238
344 349 354 355 353 355 1 3 4 1 359 3 3 3 1 2 348 333 336 349 343 321 281 216 214 207 203 208 213 213 215 219 223 220 218 226 218 230 237 235 239 247 252
323 332 337 341 344 349 352 353 353 356 359 2 3 357 345 338 333 332 335 338 336 323 302 256 238 231 222 211 210 205 215 222 231 231 226 225 218 227 231 231 237 241 247
321 320 323 330 339 342 341 345 346 352 355 356 356 345 339 340 341 338 334 335 340 327 317 340 330 296 254 237 218 208 204 209 221 233 237 229 213 228 226 224 227 230 240
304 310 317 325 323 323 326 331 335 340 348 345 339 341 344 343 340 330 329 331 329 336 358 354 343 334 322 359 153 177 190 195 199 210 211 184 154 165 180 193 216 230 241
299 302 305 304 305 305 313 315 319 329 336 332 331 336 333 331 327 326 330 324 320 328 318 306 336 315 342 14 27 112 146 144 188 193 171 125 56 158 190 168 139 295 303
300 299 299 298 299 307 315 317 320 321 322 323 325 330 328 321 324 327 324 323 325 313 302 309 307 316 352 29 44 76 75 81 99 98 127 125 18 19 26 37 61 40 3
282 285 286 286 297 310 318 322 319 318 317 315 318 321 318 314 315 311 309 309 312 306 300 300 285 282 332 48 56 68 73 77 35 36 52 76 302 5 12 20 2 15 15
295 300 304 305 308 312 323 306 297 300 298 305 312 314 310 303 298 294 296 299 289 286 293 300 297 281 303 65 76 86 105 101 37 25 29 26 11 4 7 296 226 278 312
292 299 302 296 292 303 310 292 289 286 299 311 310 309 307 301 295 295 294 288 285 289 288 289 322 319 316 75 95 102 117 148 139 324 342 354 4 5 6 0 329 289 318
292 294 297 294 296 294 283 280 281 297 312 308 303 302 303 299 298 299 303 301 281 264 281 299 316 327 339 37 61 70 81 87 144 262 306 326 3 8 16 17 30 39 37
285 288 285 288 291 283 264 273 289 308 307 302 295 296 299 299 293 280 284 297 284 262 266 260 272 298 319 320 36 64 72 70 49 273 310 342 18 23 26 43 46 40 48
281 281 280 281 284 284 275 268 287 295 285 285 287 287 288 295 298 288 264 258 252 246 245 243 252 268 286 302 326 253 167 113 77 58 49 55 64 52 44 36 31 28 23
284 274 268 273 278 285 278 275 280 276 271 274 277 278 272 267 274 277 268 267 259 244 244 240 237 235 249 262 273 254 237 196 157 103 64 34 30 30 24 22 28 26 31
283 278 273 273 278 281 280 280 277 257 248 260 262 261 263 260 261 277 295 283 276 276 265 254 255 261 260 268 258 252 217 168 143 108 126 112 64 6 335 333 337 345 346